Regional Weather Roundup
Issued by NWS

Home | Current Version | Previous Version | Graphics & Text | Print | Product List | Glossary On
Versions: 1 2 3 4 5 6 7 8 9 10 11 12 13 14 15 16 17 18 19 20 21 22 23 24 25 26 27 28 29 30 31 32 33 34 35 36 37 38 39 40 41 42 43 44 45 46 47 48 49 50
000
ASUS43 KMKX 271000
RWRWI

WISCONSIN REGIONAL WEATHER ROUNDUP
NATIONAL WEATHER SERVICE MILWAUKEE/SULLIVAN WI
500 AM CDT WED JUL 27 2016

NOTE: "FAIR" INDICATES FEW OR NO CLOUDS BELOW 12,000 FEET WITH NO
SIGNIFICANT WEATHER AND/OR OBSTRUCTIONS TO VISIBILITY.

WIZ001-002-006>008-014>016-023>028-271100-
NORTHWEST WISCONSIN

CITY           SKY/WX    TMP DP  RH WIND       PRES   REMARKS
SUPERIOR ARPT  PTCLDY    63  62  96 CALM      29.96S
ASHLAND        CLOUDY    68  65  90 CALM      29.96F
HAYWARD        MOCLDY    67  65  93 CALM      29.99S
SIREN          LGT RAIN  68  63  83 SW12G21   30.01R
CUMBERLAND     CLOUDY    64  63  94 SE3       29.98F
RICE LAKE      CLOUDY    67  64  92 CALM      29.99F
CHETEK         CLOUDY    67  66  96 CALM      29.99S
LADYSMITH      MOCLDY    66  64  92 CALM      30.00F
EAU CLAIRE     NOT AVBL
MENOMONIE      CLOUDY    69  66  90 CALM      29.98S
NEW RICHMOND   CLOUDY    72  66  83 SW6       29.97F
OSCEOLA        CLOUDY    71  64  80 S3        29.99S
$$

WIZ003>005-009-010-017-018-271100-
NORTH CENTRAL WISCONSIN

CITY           SKY/WX    TMP DP  RH WIND       PRES   REMARKS
MANITOWISH WTR CLOUDY    64  64 100 CALM      29.99S
ARBOR VITAE    CLOUDY    62  60  94 CALM      29.99S
WOODRUFF       CLOUDY    62  60  94 CALM      29.99S
RHINELANDER    MOCLDY    65  61  87 W5        30.00S
EAGLE RIVER    CLOUDY    61  61 100 CALM      29.98R
LAND O LAKES   CLOUDY    62  60  96 CALM      30.00S
PHILLIPS       CLOUDY    64  63  98 CALM      29.99S
TOMAHAWK       CLOUDY    60  59  96 CALM      30.00F FOG
MEDFORD        CLOUDY    62  62 100 S3        30.00S
MERRILL        PTCLDY    61  60  99 CALM      30.00S
$$

WIZ029-030-035-036-043>047-271100-
CENTRAL WISCONSIN

CITY           SKY/WX    TMP DP  RH WIND       PRES   REMARKS
WAUSAU         CLOUDY    67  64  90 CALM      29.98R
MOSINEE        CLOUDY    64  64 100 CALM      30.01S
MARSHFIELD     PTCLDY    68  65  90 CALM      30.00R
STEVENS POINT  CLEAR     65  64  97 CALM      30.00R
WAUPACA        CLEAR     71  68  92 CALM      29.99R
WAUTOMA        CLEAR     66  65  96 CALM      30.00R
WISC RAPIDS    PTCLDY    66  63  90 CALM      30.01R
CAMP DOUGLAS   FOG       61  61 100 NW3       30.00R VSB 1/2
$$

WIZ011>013-019>022-031-037>040-048>050-271100-
NORTHEAST WISCONSIN

CITY           SKY/WX    TMP DP  RH WIND       PRES   REMARKS
ANTIGO         PTCLDY    60  59  97 CALM      30.01R
SHAWANO        CLOUDY    71  67  87 CALM      29.98R
OCONTO         CLOUDY    70  70 100 N3        29.95F
STURGEON BAY   PTCLDY    71  66  84 N5        29.98S
GREEN BAY      CLEAR     68  68 100 CALM      29.98R
MANITOWOC      NOT AVBL
APPLETON       CLEAR     68  68 100 W7        29.98R
CLINTONVILLE   PTCLDY    68  64  88 CALM      29.98S
OSHKOSH        PTCLDY    72  66  81 W6        29.98R
$$

WIZ032>034-041-042-053>061-271100-
SOUTHWEST WISCONSIN

CITY           SKY/WX    TMP DP  RH WIND       PRES   REMARKS
LA CROSSE      CLEAR     71  69  93 SE7       30.00R
SPARTA         CLEAR     61  61 100 CALM      30.02R
VIROQUA        CLEAR     67  66  97 CALM      30.03R
BOSCOBEL       FOG       67  66  97 CALM      30.02R VSB 1/4
PRAIRIE DU CHI CLEAR     65  63  93 E3        30.01R
PLATTEVILLE    PTCLDY    67  67  98 CALM      30.03R
$$

WIZ056-057-062-063-064-067-068-271100-
SOUTH CENTRAL WISCONSIN

CITY           SKY/WX    TMP DP  RH WIND       PRES   REMARKS
REEDSBURG      CLEAR     65  65 100 CALM      30.00S
BARABOO/DELLS  CLEAR     65  63  92 CALM      30.00S
LONE ROCK      FOG       64  64 100 CALM      30.02S VSB 1/4
MINERAL POINT  CLEAR     68  64  88 CALM      30.04R
MADISON        CLEAR     67  65  93 CALM      30.01R
MIDDLETON      CLEAR     65  65 100 CALM      30.02S
WATERTOWN      CLEAR     64  64 100 CALM      30.00S
MONROE         CLEAR     72  61  68 W9        30.03R
JANESVILLE     CLEAR     66  64  94 CALM      30.01R
$$

WIZ051-052-058>065-066-070>072-271100-
SOUTHEAST WISCONSIN

CITY           SKY/WX    TMP DP  RH WIND       PRES   REMARKS
MILWAUKEE      PTCLDY    73  65  75 SW5       30.00R
WAUKESHA       CLEAR     63  61  94 CALM      30.02S
MILWAUKEE/TIMM CLEAR     68  61  77 CALM      30.01S
RACINE         CLEAR     69  63  81 W5        30.02S
BURLINGTON     CLEAR     62  62  97 CALM      30.01R
KENOSHA        CLEAR     66  63  90 SW3       30.01S
FOND DU LAC    CLEAR     66  64  93 S6        29.99R
SHEBOYGAN      CLEAR     69  65  86 W7        29.98S
WEST BEND      CLEAR     64  63  94 CALM      30.00S
JUNEAU         CLEAR     65  64  96 CALM      30.02R
$$

LSZ147-162-271100-
LAKE SUPERIOR

STATION/POSITION TIME  TEMP    WIND        PRES    WAVE
                       AIR SEA DIR/SP/G            HT/PER
                 (UTC) (F)     (DEG/KT/KT) (MB)    (FT/S)
W MID LAKE BUOY  0850   64 61   40/  8/ 10 1013.3F   0
DEVILS ISLAND    0900   69     100/  5/  6 1014.8R
PORT WING        0900   69      50/  1/  4 1014.6
SAXON HARBOR     0900   71     160/  2/  5 1014.2S
$$

LMZ867-665-643>646-271100-
LAKE MICHIGAN

STATION/POSITION TIME  TEMP    WIND        PRES    WAVE
                       AIR SEA DIR/SP/G            HT/PER
                 (UTC) (F)     (DEG/KT/KT) (MB)    (FT/S)
CHAMBERS ISLAND  0900   72     310/  8/ 11 1014.6
S GREEN BAY BUOY 0800   73 74  250/  2/  2   N/A
N MID LAKE BUOY  0850   71 69  290/  8/ 10 1013.5R   2/ 5
NORTHPORT PIER   0900   69     300/  8/ 12 1014.6F
SISTER BAY       0906   72     350/ 11/ 12   N/A
ALGOMA LAKESHORE 0913           30/ 14/ 18   N/A
KEWAUNEE LAKESHO 0900   74     300/  6/ 11 1014.0R
SHEBOYGAN LAKESH 0900   74     280/  7/  8 1014.8R
PORT WASHINGTON  0940   67     210/  2/  4 1015.9R
ATWATER BUOY     0900   65 54   CALM  /  2 1017.1R
MILWAUKEE LAKESH 0910   75     280/  4/  5   N/A
S MID LAKE BUOY  0850   75 75  220/  6/  6 1015.0R   0
KENOSHA   LAKESH 0900   73     270/  6/  8 1015.6S
$$

TC  - TEMPERATURE IN CELSIUS
VSB - VISIBILITY IN STATUTE MILES
WCI - WIND CHILL INDEX
HX  - HEAT INDEX




USA.gov is the U.S. government's official web portal to all federal, state and local government web resources and services.